Weather History for Santorini Island, Greece

Change the Weather History Date:

Thursday, February 7, 2013

  Actual Average Record
Temperature  
Mean Temperature 62 °F -  
Max Temperature 64 °F 55 °F 68 °F (2009)
Min Temperature 59 °F 47 °F 41 °F (2005)
Degree Days  
Heating Degree Days 4    
Growing Degree Days 12 (Base 50)    
Moisture  
Dew Point 46 °F    
Average Humidity 59    
Maximum Humidity 72    
Minimum Humidity 48    
Precipitation  
Precipitation 0.00 in - - ()
Sea Level Pressure  
Sea Level Pressure 29.76 in    
Wind  
Wind Speed 14 mph ()    
Max Wind Speed 29 mph    
Max Gust Speed 34 mph    
Visibility 6.2 miles    
Events Rain    
Averages and records for this station are not official NWS values.
T = Trace of Precipitation, MM = Missing Value Source: Averaged Metar Reports

Daily Weather History Graph

Daily Weather History Graph

Search for Another Location

Airport:

Trip Planner

Search our weather history database for the weather conditions in past years. The results will help you decide how hot, cold, wet, or windy it might be!

Date:

Astronomy

Feb. 07, 2013 Rise Set
Actual Time 7:14 AM EET 5:50 PM EET
Civil Twilight 6:47 AM EET 6:17 PM EET
Nautical Twilight 6:16 AM EET 6:47 PM EET
Astronomical Twilight 5:46 AM EET 7:18 PM EET
Moon 4:33 AM EET (2/7) 2:56 PM EET (2/7)
Length of Visible Light 11h 29m
Length of Day
10h 36m
Waning Crescent, 11% of the Moon is Illuminated
Feb 7
Waning Crescent
Feb 10
New
Feb 17
First Quarter
Feb 25
Full
Mar 4
Last Quarter

Hourly Weather History & Observations

Time (EET) Temp. Dew Point Humidity Pressure Visibility Wind Dir Wind Speed Gust Speed Precip Events Conditions
12:20 AM 59.0 °F 50.0 °F 72% 29.83 in - North - - N/A   Unknown
12:50 AM 59.0 °F 48.2 °F 67% 29.83 in - North - - N/A Rain Light Rain
1:20 AM 59.0 °F 46.4 °F 63% 29.83 in - North - - N/A   Unknown
1:50 AM 59.0 °F 46.4 °F 63% 29.80 in - North - - N/A   Unknown
2:20 AM 59.0 °F 46.4 °F 63% 29.83 in - North - - N/A   Unknown
2:50 AM 59.0 °F 46.4 °F 63% 29.83 in - North - - N/A   Unknown
3:20 AM 59.0 °F 46.4 °F 63% 29.80 in - North - - N/A   Unknown
3:50 AM 59.0 °F 46.4 °F 63% 29.80 in - North - - N/A Rain Light Rain
4:20 AM 59.0 °F 46.4 °F 63% 29.80 in - North - - N/A   Unknown
4:50 AM 59.0 °F 46.4 °F 63% 29.83 in - North - - N/A   Unknown
5:20 AM 59.0 °F 46.4 °F 63% 29.83 in - North - - N/A   Unknown
5:50 AM 59.0 °F 44.6 °F 59% 29.83 in - North - - N/A   Unknown
6:20 AM 59.0 °F 46.4 °F 63% 29.83 in - North - - N/A   Unknown
6:50 AM 59.0 °F 48.2 °F 67% 29.83 in - North - - N/A   Unknown
7:20 AM 59.0 °F 48.2 °F 67% 29.80 in 6.2 mi South 13.8 mph - N/A   Scattered Clouds
7:50 AM 59.0 °F 48.2 °F 67% 29.80 in 6.2 mi South 16.1 mph - N/A   Scattered Clouds
8:20 AM 59.0 °F 46.4 °F 63% 29.80 in 6.2 mi South 13.8 mph - N/A   Scattered Clouds
8:50 AM 60.8 °F 46.4 °F 59% 29.83 in 6.2 mi South 13.8 mph - N/A   Scattered Clouds
9:20 AM 59.0 °F 48.2 °F 67% 29.83 in 6.2 mi SSW 11.5 mph - N/A   Mostly Cloudy
9:50 AM 60.8 °F 48.2 °F 63% 29.80 in 6.2 mi South 11.5 mph - N/A   Mostly Cloudy
10:20 AM 60.8 °F 48.2 °F 63% 29.80 in 6.2 mi South 17.3 mph - N/A   Mostly Cloudy
10:50 AM 59.0 °F 48.2 °F 67% 29.80 in 6.2 mi South 16.1 mph - N/A   Mostly Cloudy
11:20 AM 60.8 °F 50.0 °F 68% 29.80 in 6.2 mi South 13.8 mph - N/A   Mostly Cloudy
11:50 AM 60.8 °F 50.0 °F 68% 29.80 in 6.2 mi South 9.2 mph - N/A   Scattered Clouds
12:20 PM 62.6 °F 50.0 °F 63% 29.77 in 6.2 mi South 13.8 mph - N/A   Scattered Clouds
12:50 PM 62.6 °F 46.4 °F 55% 29.77 in 6.2 mi South 13.8 mph - N/A   Scattered Clouds
1:20 PM 62.6 °F 44.6 °F 52% 29.74 in 6.2 mi South 17.3 mph 28.8 mph N/A   Scattered Clouds
1:50 PM 64.4 °F 46.4 °F 52% 29.74 in 6.2 mi SSW 16.1 mph - N/A   Scattered Clouds
2:50 PM 62.6 °F 46.4 °F 55% 29.74 in 6.2 mi South 17.3 mph 28.8 mph N/A   Scattered Clouds
3:20 PM 62.6 °F 44.6 °F 52% 29.71 in 6.2 mi South 17.3 mph 28.8 mph N/A   Scattered Clouds
3:50 PM 62.6 °F 44.6 °F 52% 29.71 in 6.2 mi South 20.7 mph 32.2 mph N/A   Partly Cloudy
4:20 PM 62.6 °F 44.6 °F 52% 29.71 in 6.2 mi South 23.0 mph 34.5 mph N/A   Partly Cloudy
4:50 PM 62.6 °F 44.6 °F 52% 29.71 in 6.2 mi South 23.0 mph 34.5 mph N/A   Partly Cloudy
5:20 PM 60.8 °F 44.6 °F 55% 29.71 in 6.2 mi South 28.8 mph - N/A   Partly Cloudy
5:50 PM 60.8 °F 44.6 °F 55% 29.71 in 6.2 mi South 28.8 mph - N/A   Partly Cloudy
6:20 PM 60.8 °F 44.6 °F 55% 29.68 in - North - - N/A   Unknown
6:50 PM 60.8 °F 46.4 °F 59% 29.71 in - North - - N/A   Unknown
7:20 PM 60.8 °F 44.6 °F 55% 29.71 in - North - - N/A Rain Light Rain
7:50 PM 60.8 °F 42.8 °F 52% 29.71 in 6.2 mi SSE 23.0 mph 34.5 mph N/A   Partly Cloudy
8:20 PM 60.8 °F 44.6 °F 55% 29.71 in - North - - N/A   Unknown
8:50 PM 60.8 °F 42.8 °F 52% 29.68 in - North - - N/A Rain Light Rain
9:20 PM 62.6 °F 42.8 °F 48% 29.68 in - North - - N/A Rain Light Rain
9:50 PM 62.6 °F 42.8 °F 48% 29.68 in - North - - N/A Rain Light Rain
10:20 PM 62.6 °F 46.4 °F 55% 29.68 in - North - - N/A Rain Light Rain
10:50 PM 62.6 °F 44.6 °F 52% 29.68 in - North - - N/A Rain Light Rain
11:20 PM 62.6 °F 44.6 °F 52% 29.68 in - North - - N/A Rain Light Rain
11:50 PM 62.6 °F 42.8 °F 48% 29.68 in - North - - N/A Rain Light Rain